User: anonymous   Login
Location: Unspecified
(0.0000°N, 0.0000°E)
Time: 00:08:20
(UTC+00:00)
Language:

TBA - TO BE ASSIGNED - Orbit

View from above orbital plane
View from above orbital plane
View from above satellite
View from above satellite

Ground track
Ground track

The orbit is defined by the following mean orbital elements,

1 68820U          26145.58335647 +.00000000 +00000-0 -59991-3 0 00003
2 68820  97.2844 352.2796 0001369  81.6825 114.0645 15.75232070    06
Epoch (UTC): 25 May 2026 14:00:01
Eccentricity: 0.0001369
inclination: 97.2844°
perigee height: 343 km
apogee height: 345 km
right ascension of ascending node: 352.2796°
argument of perigee: 81.6825°
revolutions per day: 15.75232070
mean anomaly at epoch: 114.0645°

The dashed part of the orbit path shows where the satellite is in the earth's shadow,  

DLR